EHI
0 0 0 0 0 0 0 1 3 3 3 2 1 0 0 0 0 0 0 0 0 0 0 0 0 0 0 0 0 0 0 0 0 0 0 0 0 0 0 0 0 0 0
0 0 0 0 0 0 1 2 5 7 6 5 3 1 0 0 0 0 0 0 0 0 0 0 0 0 0 0 0 0 0 0 0 0 0 0 0 0 0 0 0 0 0
0 0 0 0 0 0 1 2 5 8 7 5 3 1 0 0 0 0 0 0 0 0 0 0 0 0 0 0 0 0 0 0 0 0 0 0 0 0 0 0 0 0 0
0 0 0 0 0 0 0 1 2 4 4 3 1 0 0 0 0 0 0 0 0 0 0 0 0 0 0 0 0 0 0 0 0 0 0 0 0 0 0 0 0 0 0
0 0 0 0 0 0 0 0 0 1 1 0 0 0 0 0 0 0 0 0 0 0 0 0 0 0 0 0 0 0 0 0 0 0 0 0 0 0 0 0 0 0 0
0 0 0 0 0 0 0 0 0 0 0 0 0 0 0 0 0 0 0 0 0 0 0 0 0 0 0 0 0 0 0 0 0 0 0 0 2 4 2 0 0 0 0
0 0 0 0 0 0 0 0 0 0 0 0 0 0 0 0 0 0 0 0 0 0 0 0 0 0 0 0 0 0 0 0 0 0 0 0 5 10 5 0 0 0 0
0 0 0 0 0 0 0 0 0 0 0 0 0 0 0 0 0 0 0 0 0 0 0 0 0 0 0 0 0 0 0 0 0 0 0 2 10 13 6 0 0 0 0
0 0 0 0 0 0 0 0 0 0 0 0 0 0 0 0 0 0 0 0 0 0 0 0 0 0 0 0 0 0 0 0 0 0 0 7 17 13 3 0 0 0 0
0 0 0 0 0 0 0 0 0 0 0 0 0 0 0 0 0 0 0 0 0 0 0 0 0 0 0 0 0 0 0 0 0 0 0 9 17 10 1 0 0 0 0
0 0 0 0 0 0 0 0 0 0 0 0 0 0 0 0 0 0 0 0 0 0 0 0 0 0 0 0 0 0 0 0 0 0 2 7 9 4 0 0 0 0 0
3 2 1 0 0 0 0 0 0 0 0 0 0 0 0 0 0 0 0 0 0 0 0 0 0 0 0 0 0 1 0 0 0 0 4 9 5 0 0 0 0 0 0
8 5 1 0 0 0 0 0 0 0 0 0 0 0 0 0 0 0 0 0 0 0 0 0 0 0 0 0 0 0 0 0 0 0 5 8 5 0 0 0 0 0 0
14 9 4 1 0 0 0 0 0 0 0 0 0 0 0 0 0 0 0 0 0 0 0 0 0 0 0 0 0 0 0 0 0 0 2 4 2 0 0 0 0 0 0
16 12 6 3 1 0 0 0 0 0 0 0 0 0 0 0 0 0 0 0 0 0 0 0 0 0 0 0 0 0 0 0 0 0 0 1 2 1 0 0 0 0 0
11 9 7 5 3 1 0 0 0 0 1 0 1 5 6 3 0 0 0 0 0 0 0 0 0 0 0 0 0 0 0 0 0 0 0 1 2 1 0 0 0 0 0
7 8 9 7 5 3 3 2 1 1 1 0 3 12 18 12 8 7 3 0 1 1 1 1 0 0 0 0 1 1 0 0 0 0 0 0 1 1 0 0 0 0 0
18 25 26 18 11 9 10 10 7 5 4 1 4 15 24 23 21 23 16 6 3 3 2 2 1 0 0 0 2 2 1 1 1 1 1 0 0 0 1 2 2 1 0
34 48 53 42 32 30 32 32 27 21 13 5 6 20 37 40 40 43 37 19 9 7 7 5 4 3 2 1 2 2 2 2 1 1 0 0 0 0 1 3 4 3 1
30 45 57 56 58 64 64 61 55 46 35 24 22 38 59 63 60 60 54 35 20 16 13 9 7 6 4 2 1 1 1 1 1 2 1 0 0 0 0 4 7 4 1
14 25 39 51 65 79 85 82 77 72 66 59 54 62 73 73 67 65 61 48 35 26 20 12 9 6 3 1 0 0 0 0 1 3 2 0 0 0 0 4 8 7 5
10 16 28 41 54 68 79 82 83 85 85 83 80 78 75 67 60 58 57 47 34 28 22 12 7 4 1 0 0 0 0 0 1 2 1 0 0 0 0 2 7 11 9
12 16 27 38 45 51 60 67 74 80 83 85 84 78 69 59 51 46 40 29 19 16 15 8 3 2 0 0 0 0 0 0 0 0 1 0 0 0 0 0 4 7 6
7 13 25 35 41 46 52 61 68 71 72 74 72 65 55 46 38 28 20 11 6 5 5 3 1 0 0 0 0 0 0 0 0 0 0 0 0 0 0 0 1 2 1
2 7 17 27 37 45 50 58 65 64 59 55 50 42 32 25 18 10 5 3 2 2 1 0 0 0 0 0 0 0 0 0 0 0 0 0 0 0 0 0 0 0 0
0 3 10 20 33 41 42 49 58 58 50 41 32 23 14 9 5 2 0 1 1 1 0 0 0 0 0 0 0 0 0 0 0 0 0 0 0 0 0 0 0 0 0
Wind_Speed
14 18 20 16 14 13 14 15 15 15 15 14 14 14 13 12 10 9 8 9 8 9 9 9 9 9 10 10 10 10 9 9 9 9 9 9 8 7 8 7 7 9 9
16 19 20 17 15 14 14 15 15 15 15 15 14 13 12 11 10 8 7 7 7 7 7 8 8 8 8 9 9 8 8 7 7 7 7 8 8 6 5 3 3 8 9
18 19 19 17 16 15 14 15 15 15 15 14 14 13 12 11 10 9 8 7 6 6 6 6 6 7 7 7 7 7 7 6 5 5 5 6 9 6 5 4 3 7 7
18 18 18 18 16 15 15 15 15 14 14 13 13 12 12 11 10 10 9 8 6 6 5 4 4 5 5 5 6 6 6 5 4 5 8 3 5 9 5 5 5 5 6
16 16 17 19 17 16 15 14 14 14 13 12 11 11 11 11 10 9 8 7 6 6 5 4 3 3 3 3 5 6 6 6 6 10 6 4 4 8 5 7 7 7 7
16 15 18 19 17 16 15 14 13 13 12 11 11 10 10 9 9 9 8 7 6 5 5 5 4 3 3 2 3 5 6 6 9 11 6 7 7 9 7 8 9 10 9
16 15 18 18 17 16 15 14 13 12 11 11 10 10 9 9 9 8 8 7 7 6 5 4 5 5 4 4 4 5 6 7 11 8 6 8 6 8 7 9 11 12 12
16 15 17 18 16 16 15 14 13 12 11 11 10 10 9 9 8 8 7 7 7 7 6 6 5 5 6 6 6 7 7 10 11 10 9 8 5 6 7 10 11 12 14
15 14 15 17 16 16 15 14 14 13 12 11 11 11 10 9 9 8 8 8 8 8 7 7 7 7 7 8 8 8 9 9 12 9 9 7 8 8 9 12 11 11 14
14 14 14 15 15 15 15 16 14 13 13 12 11 11 10 10 10 10 10 11 9 9 8 9 9 9 9 10 10 10 10 11 14 12 8 6 10 9 11 13 13 12 12
13 12 13 14 13 13 13 14 15 14 13 12 12 12 11 11 12 11 12 7 8 9 10 10 10 10 11 13 15 13 11 10 11 8 7 3 8 9 13 14 14 13 12
15 14 12 12 12 12 10 10 10 11 12 12 10 11 11 9 7 7 5 6 9 10 11 12 11 11 13 10 12 15 8 10 9 7 6 7 7 11 14 14 14 14 14
15 14 13 11 11 11 8 8 7 7 7 11 12 10 8 7 6 7 5 8 10 11 10 9 11 9 8 6 5 6 7 7 6 6 4 10 10 13 14 13 14 15 14
15 14 13 12 10 10 9 7 7 7 6 7 9 10 9 6 6 6 5 6 6 5 6 6 6 8 8 9 9 9 8 6 7 5 3 6 10 12 13 11 12 13 13
14 14 12 10 9 9 8 7 8 8 8 8 7 8 9 8 7 7 6 6 7 7 6 7 7 7 8 9 8 8 9 8 9 7 6 8 12 12 12 12 12 12 12
13 13 12 12 11 10 8 8 8 9 8 9 8 10 11 9 8 7 8 8 8 8 8 7 8 7 7 7 8 9 9 10 8 8 9 7 12 13 13 12 13 12 12
12 12 12 12 12 12 11 12 10 10 10 9 9 10 11 12 10 9 9 9 9 8 8 8 9 8 8 8 9 9 9 9 9 9 9 8 8 13 16 14 13 12 13
11 11 11 10 12 13 12 11 9 9 10 9 9 10 12 13 12 10 10 10 9 8 8 8 8 9 8 8 8 8 8 7 10 10 10 9 8 7 11 16 14 13 13
9 9 10 11 11 11 12 11 11 9 10 9 10 10 11 13 14 12 11 10 9 9 8 8 8 8 8 9 9 8 9 8 9 10 10 10 10 9 9 9 14 13 13
9 10 10 11 11 11 10 9 9 10 10 11 11 11 13 12 14 12 11 11 10 8 7 7 8 8 8 9 10 10 10 11 11 11 12 11 10 11 11 10 9 11 15
8 10 11 12 11 10 9 9 9 10 10 10 11 13 13 13 12 10 10 9 9 8 9 9 8 10 9 8 9 11 11 12 11 10 10 10 11 11 11 10 9 8 7
6 7 9 10 10 11 9 8 8 9 9 9 8 8 10 11 11 10 10 8 8 7 8 8 8 8 8 7 8 9 9 9 8 8 8 8 9 9 10 11 9 8 7
5 6 7 7 8 10 10 9 8 8 8 8 8 7 8 9 10 7 7 6 7 7 7 7 7 8 8 7 6 6 7 7 5 4 5 6 6 5 6 6 7 7 7
6 6 7 7 8 9 10 10 12 10 11 10 7 6 7 7 8 7 6 5 7 7 6 6 6 5 7 7 5 6 7 6 7 7 6 5 5 6 5 4 5 5 6
8 7 7 7 7 8 8 9 10 10 9 6 5 4 4 3 4 4 5 5 6 5 5 4 4 5 5 6 5 5 6 6 8 7 8 6 5 5 4 5 4 4 5
8 8 8 8 8 8 8 9 9 9 8 7 6 4 4 3 3 4 4 4 5 5 5 4 4 5 3 3 4 4 4 4 4 5 7 6 6 4 4 3 3 3 4
Wind_Direction
158 144 148 158 156 146 134 130 133 139 144 147 147 146 147 147 146 142 135 128 120 112 108 107 105 105 109 112 112 111 112 113 113 114 114 112 111 113 119 135 163 120 116
149 144 151 159 158 151 141 135 134 136 140 143 144 145 148 149 148 144 140 136 130 120 114 112 109 108 112 117 118 120 122 123 124 125 133 138 128 126 130 137 350 104 136
147 146 156 161 159 155 147 141 139 139 141 144 145 147 150 152 152 149 147 145 139 128 120 117 116 114 116 122 128 131 134 137 140 143 211 183 136 143 151 152 125 135 152
150 151 160 159 163 159 153 149 146 145 145 147 149 153 155 157 156 154 151 149 146 139 131 121 121 125 130 139 147 150 153 159 172 208 225 181 161 138 175 180 178 178 174
150 153 153 162 166 163 160 157 153 151 152 153 154 158 161 164 166 163 158 157 157 155 152 147 137 139 153 175 178 174 179 189 204 237 229 217 214 138 195 204 198 201 201
154 159 154 168 168 167 165 164 161 158 159 161 163 165 167 169 171 171 169 168 169 171 176 178 169 173 188 196 186 190 201 214 230 234 226 228 223 156 199 223 218 214 212
161 163 157 172 171 171 172 172 170 167 166 168 171 174 175 176 176 176 177 180 184 187 190 187 187 191 201 211 220 226 232 238 255 257 240 236 233 152 209 238 239 228 218
165 167 156 172 177 177 179 179 179 178 179 180 181 183 185 185 185 188 192 197 201 200 198 199 206 211 218 225 230 235 240 253 252 248 238 242 184 161 232 251 257 243 225
170 167 162 174 181 184 187 188 188 188 191 194 194 193 194 198 202 204 207 214 216 216 215 212 214 223 233 236 236 236 240 247 268 264 251 242 162 188 237 253 263 259 233
175 174 172 178 180 186 189 193 196 197 199 204 208 208 206 209 215 217 221 213 226 234 233 231 228 229 236 242 241 237 239 245 249 255 244 220 163 207 240 251 255 260 242
183 183 182 181 181 191 194 183 194 201 206 212 214 215 220 225 218 206 222 195 226 242 246 246 244 241 242 237 236 238 239 247 252 259 262 157 170 226 245 249 251 253 250
187 189 188 192 183 193 196 180 200 205 202 216 224 214 218 231 246 249 153 207 242 250 253 249 250 250 243 245 221 212 240 244 260 257 241 161 204 242 252 250 248 249 249
189 192 189 195 188 198 201 198 206 212 209 213 224 226 235 243 234 237 230 208 222 232 244 232 232 244 251 256 280 257 264 273 262 259 237 170 213 242 253 252 246 247 248
193 194 194 191 194 204 210 210 216 222 218 225 212 222 227 230 246 249 247 253 246 236 241 259 258 260 266 270 260 260 262 255 266 278 280 194 222 242 253 252 246 245 246
196 197 196 196 201 207 215 228 224 229 228 225 233 220 236 240 239 242 245 251 258 257 246 240 254 268 272 268 266 266 274 271 267 267 265 227 228 236 245 253 250 243 242
201 201 197 198 205 212 216 227 235 237 228 244 230 229 226 237 241 245 242 240 248 252 259 267 266 266 265 270 272 274 274 277 271 265 263 249 222 223 231 243 250 244 237
203 203 202 202 205 210 220 226 233 240 238 236 236 232 230 235 234 238 247 245 246 249 248 250 257 260 260 259 260 263 263 264 264 259 262 266 252 216 213 225 236 238 235
208 203 206 210 209 211 219 230 238 242 248 246 243 237 230 236 236 238 245 247 248 251 253 250 256 261 261 265 269 273 272 266 261 259 257 248 252 258 218 207 220 229 231
215 213 212 217 218 217 218 222 235 242 248 251 247 244 236 234 236 236 245 251 255 254 254 259 257 263 270 270 272 266 266 265 265 260 259 261 255 248 256 204 203 220 228
219 217 220 219 221 223 222 223 232 237 238 239 242 243 245 242 242 244 246 247 251 255 257 258 265 262 268 273 278 281 274 270 266 263 259 254 250 250 249 246 220 214 215
220 220 220 225 220 221 226 229 230 235 238 240 240 242 248 254 256 252 255 254 250 250 252 255 258 262 263 271 276 275 268 261 257 258 259 264 260 254 252 247 241 245 214
241 238 236 231 231 226 228 232 239 244 247 245 248 249 253 258 257 253 250 253 253 251 250 254 256 271 277 268 272 283 283 271 244 243 251 255 263 261 247 232 228 231 251
278 270 268 269 262 252 250 246 245 245 248 244 240 240 244 253 256 243 242 248 251 251 248 250 257 258 268 269 258 267 285 292 316 260 249 259 261 262 255 246 230 227 233
331 313 299 289 278 272 264 258 256 251 250 250 247 241 235 232 234 225 203 216 243 245 238 237 238 254 259 265 254 242 253 276 275 283 261 235 232 243 246 237 237 230 238
342 334 322 310 299 291 283 275 268 259 256 254 245 235 233 222 214 206 188 185 219 235 229 232 226 249 254 269 275 266 258 253 250 260 276 281 271 251 226 227 241 249 247
335 330 324 314 303 293 283 274 262 258 250 238 219 197 184 172 169 165 169 186 215 221 212 214 220 221 250 271 278 272 272 274 274 263 273 282 279 268 264 262 256 258 263